Time,TemperatureF,DewpointF,PressureIn,WindDirection,WindDirectionDegrees,WindSpeedMPH,WindSpeedGustMPH,Humidity,HourlyPrecipIn,Conditions,Clouds,dailyrainin,SoftwareType,DateUTC
2013-12-09 00:00:00,6.5,-5.6,29.97,East,90,0.0,0.0,57,0.00,,,0.00,WUHU216HW,2013-12-09 06:00:00,
2013-12-09 00:05:00,6.5,-5.6,29.97,East,90,0.0,0.0,57,0.00,,,0.00,WUHU216HW,2013-12-09 06:05:00,
2013-12-09 00:06:00,6.5,-5.6,29.97,East,90,0.0,0.0,57,0.00,,,0.00,WUHU216HW,2013-12-09 06:06:00,
2013-12-09 00:30:00,5.2,-5.8,29.96,East,90,0.0,0.0,60,0.00,,,0.00,WUHU216HW,2013-12-09 06:30:00,
2013-12-09 01:00:00,4.7,-6.3,29.95,East,90,0.0,0.0,60,0.00,,,0.00,WUHU216HW,2013-12-09 07:00:00,
2013-12-09 01:30:00,4.5,-6.4,29.94,East,90,0.4,0.4,60,0.00,,,0.00,WUHU216HW,2013-12-09 07:30:00,
2013-12-09 02:00:00,5.2,-6.8,29.94,East,90,1.1,1.1,57,0.00,,,0.00,WUHU216HW,2013-12-09 08:00:00,
2013-12-09 02:01:00,5.2,-7.2,29.94,East,90,0.7,1.8,56,0.00,,,0.00,WUHU216HW,2013-12-09 08:01:00,
2013-12-09 02:31:00,5.0,-6.3,29.94,East,90,1.1,1.1,59,0.00,,,0.00,WUHU216HW,2013-12-09 08:31:00,
2013-12-09 03:00:00,4.7,-6.7,29.93,East,90,2.9,2.9,59,0.00,,,0.00,WUHU216HW,2013-12-09 09:00:00,
2013-12-09 03:30:00,4.5,-6.7,29.92,East,90,2.5,2.5,59,0.00,,,0.00,WUHU216HW,2013-12-09 09:30:00,
2013-12-09 04:00:00,3.6,-6.9,29.91,East,90,2.0,2.0,61,0.00,,,0.00,WUHU216HW,2013-12-09 10:00:00,
2013-12-09 04:30:00,4.3,-6.6,29.91,East,90,4.5,4.5,60,0.00,,,0.00,WUHU216HW,2013-12-09 10:30:00,
2013-12-09 05:00:00,4.0,-5.9,29.91,East,90,4.0,4.0,63,0.00,,,0.00,WUHU216HW,2013-12-09 11:00:00,
2013-12-09 05:30:00,2.5,-6.7,29.91,East,90,2.2,2.2,65,0.00,,,0.00,WUHU216HW,2013-12-09 11:30:00,
2013-12-09 07:30:00,-1.1,-7.7,29.94,East,90,10.1,10.1,73,0.00,,,0.00,WUHU216HW,2013-12-09 13:30:00,
2013-12-09 08:00:00,-2.2,-8.5,29.96,East,90,6.9,6.9,74,0.00,,,0.00,WUHU216HW,2013-12-09 14:00:00,
2013-12-09 08:30:00,-2.5,-8.8,29.96,East,90,12.1,12.1,74,0.00,,,0.00,WUHU216HW,2013-12-09 14:30:00,
2013-12-09 09:00:00,-3.1,-9.4,29.97,East,90,11.6,11.6,74,0.00,,,0.00,WUHU216HW,2013-12-09 15:00:00,
2013-12-09 09:30:00,-3.4,-10.0,29.98,East,90,9.2,9.2,73,0.00,,,0.00,WUHU216HW,2013-12-09 15:30:00,
2013-12-09 10:00:00,-3.2,-10.1,29.99,East,90,19.2,19.2,72,0.00,,,0.00,WUHU216HW,2013-12-09 16:00:00,
2013-12-09 10:30:00,-2.9,-9.7,30.00,East,90,10.7,10.7,72,0.00,,,0.00,WUHU216HW,2013-12-09 16:30:00,
2013-12-09 11:00:00,-2.5,-9.9,30.00,East,90,11.4,11.4,70,0.00,,,0.00,WUHU216HW,2013-12-09 17:00:00,
2013-12-09 11:30:00,-1.6,-9.3,30.00,East,90,12.8,12.8,69,0.00,,,0.00,WUHU216HW,2013-12-09 17:30:00,
2013-12-09 19:00:00,-5.6,-11.9,29.98,East,90,1.3,1.3,74,0.00,,,0.00,WUHU216HW,2013-12-10 01:00:00,
2013-12-09 19:05:00,-5.9,-12.2,29.98,East,90,1.8,2.2,74,0.00,,,0.00,WUHU216HW,2013-12-10 01:05:00,
2013-12-09 19:10:00,-5.9,-12.2,29.98,East,90,2.9,2.9,74,0.00,,,0.00,WUHU216HW,2013-12-10 01:10:00,
2013-12-09 19:11:00,-5.9,-12.2,29.98,East,90,1.7,3.1,74,0.00,,,0.00,WUHU216HW,2013-12-10 01:11:00,
2013-12-09 19:15:00,-5.9,-12.2,29.98,East,90,1.3,3.1,74,0.00,,,0.00,WUHU216HW,2013-12-10 01:15:00,
2013-12-09 19:16:00,-5.9,-12.2,29.98,East,90,1.3,3.1,74,0.00,,,0.00,WUHU216HW,2013-12-10 01:16:00,
2013-12-09 19:20:00,-5.9,-12.2,29.98,East,90,1.3,1.3,74,0.00,,,0.00,WUHU216HW,2013-12-10 01:20:00,
2013-12-09 19:41:00,-5.8,-11.8,29.97,East,90,2.9,2.9,75,0.00,,,0.00,WUHU216HW,2013-12-10 01:41:00,
2013-12-09 19:46:00,-5.8,-11.8,29.97,East,90,2.9,2.9,75,0.00,,,0.00,WUHU216HW,2013-12-10 01:46:00,
2013-12-09 19:47:00,-5.8,-11.8,29.97,East,90,2.9,2.9,75,0.00,,,0.00,WUHU216HW,2013-12-10 01:47:00,
2013-12-09 19:48:00,-5.8,-11.8,29.97,East,90,2.9,2.9,75,0.00,,,0.00,WUHU216HW,2013-12-10 01:48:00,
2013-12-09 20:30:00,-5.6,-11.6,29.95,East,90,3.4,3.4,75,0.00,,,0.00,WUHU216HW,2013-12-10 02:30:00,
2013-12-09 20:35:00,-5.8,-11.8,29.95,East,90,4.0,4.7,75,0.00,,,0.00,WUHU216HW,2013-12-10 02:35:00,
2013-12-09 20:40:00,-5.8,-11.8,29.95,East,90,4.0,4.7,75,0.00,,,0.00,WUHU216HW,2013-12-10 02:40:00,
2013-12-09 21:00:00,-6.1,-12.1,29.93,East,90,4.3,4.3,75,0.00,,,0.00,WUHU216HW,2013-12-10 03:00:00,
2013-12-09 21:05:00,-6.1,-12.1,29.93,East,90,4.5,4.5,75,0.00,,,0.00,WUHU216HW,2013-12-10 03:05:00,
2013-12-09 21:06:00,-6.1,-12.1,29.93,East,90,4.5,4.5,75,0.00,,,0.00,WUHU216HW,2013-12-10 03:06:00,
2013-12-09 21:10:00,-6.1,-12.1,29.93,East,90,4.5,4.5,75,0.00,,,0.00,WUHU216HW,2013-12-10 03:10:00,
2013-12-09 21:30:00,-5.4,-11.7,29.91,East,90,3.4,3.4,74,0.00,,,0.00,WUHU216HW,2013-12-10 03:30:00,
2013-12-09 21:31:00,-5.4,-11.4,29.91,East,90,2.8,3.4,75,0.00,,,0.00,WUHU216HW,2013-12-10 03:31:00,
2013-12-09 21:35:00,-5.4,-11.4,29.91,East,90,2.2,3.4,75,0.00,,,0.00,WUHU216HW,2013-12-10 03:35:00,
2013-12-09 21:36:00,-5.4,-11.4,29.91,East,90,2.2,3.4,75,0.00,,,0.00,WUHU216HW,2013-12-10 03:36:00,
2013-12-09 21:40:00,-5.4,-11.4,29.91,East,90,2.2,3.4,75,0.00,,,0.00,WUHU216HW,2013-12-10 03:40:00,
2013-12-09 22:00:00,-5.4,-11.7,29.90,East,90,2.7,2.7,74,0.00,,,0.00,WUHU216HW,2013-12-10 04:00:00,
2013-12-09 22:01:00,-5.4,-11.7,29.91,East,90,2.7,2.7,74,0.00,,,0.00,WUHU216HW,2013-12-10 04:01:00,
2013-12-09 22:05:00,-5.4,-11.7,29.91,East,90,2.7,2.7,74,0.00,,,0.00,WUHU216HW,2013-12-10 04:05:00,
2013-12-09 22:06:00,-5.4,-11.7,29.91,East,90,2.7,2.7,74,0.00,,,0.00,WUHU216HW,2013-12-10 04:06:00,
2013-12-09 22:10:00,-5.4,-11.7,29.91,East,90,2.7,2.7,74,0.00,,,0.00,WUHU216HW,2013-12-10 04:10:00,
2013-12-09 22:30:00,-3.6,-9.9,29.88,East,90,4.0,4.0,74,0.00,,,0.00,WUHU216HW,2013-12-10 04:30:00,
2013-12-09 22:31:00,-3.6,-9.9,29.88,East,90,6.0,6.0,74,0.00,,,0.00,WUHU216HW,2013-12-10 04:31:00,
2013-12-09 22:35:00,-3.6,-9.9,29.88,East,90,6.0,6.0,74,0.00,,,0.00,WUHU216HW,2013-12-10 04:35:00,
2013-12-09 22:36:00,-3.6,-9.9,29.88,East,90,6.0,6.0,74,0.00,,,0.00,WUHU216HW,2013-12-10 04:36:00,
2013-12-09 22:40:00,-3.6,-9.9,29.88,East,90,6.0,6.0,74,0.00,,,0.00,WUHU216HW,2013-12-10 04:40:00,
2013-12-09 23:00:00,-2.3,-8.6,29.86,East,90,5.1,5.1,74,0.00,,,0.00,WUHU216HW,2013-12-10 05:00:00,
2013-12-09 23:01:00,-2.3,-8.6,29.86,East,90,6.9,6.9,74,0.00,,,0.00,WUHU216HW,2013-12-10 05:01:00,
2013-12-09 23:02:00,-2.3,-8.6,29.86,East,90,6.9,6.9,74,0.00,,,0.00,WUHU216HW,2013-12-10 05:02:00,
2013-12-09 23:06:00,-2.3,-8.6,29.86,East,90,6.9,6.9,74,0.00,,,0.00,WUHU216HW,2013-12-10 05:06:00,
2013-12-09 23:07:00,-2.3,-8.6,29.86,East,90,6.9,6.9,74,0.00,,,0.00,WUHU216HW,2013-12-10 05:07:00,
2013-12-09 23:30:00,-1.4,-7.7,29.83,East,90,7.4,7.4,74,0.00,,,0.00,WUHU216HW,2013-12-10 05:30:00,
2013-12-09 23:31:00,-1.4,-7.7,29.83,East,90,8.5,8.5,74,0.00,,,0.00,WUHU216HW,2013-12-10 05:31:00,
2013-12-09 23:35:00,-1.4,-7.7,29.83,East,90,8.5,8.5,74,0.00,,,0.00,WUHU216HW,2013-12-10 05:35:00,
2013-12-09 23:36:00,-1.4,-7.7,29.83,East,90,8.5,8.5,74,0.00,,,0.00,WUHU216HW,2013-12-10 05:36:00,
2013-12-09 23:40:00,-1.4,-7.7,29.83,East,90,8.5,8.5,74,0.00,,,0.00,WUHU216HW,2013-12-10 05:40:00,